Погода в Мванзе

Танзания     2°30′42″S   32°54′07″E
темп.,
°C
ветер,
м/с
пор.,
м/с
влажн.,
%
обл.,
%
осадки,
мм/ч
давл.,
гПа
погр.,
м
10 августа, ср
ср1000:00+23сз115241 0.0 101218
03:00+21ююв244495 0.0 1012114
06:00+19ююв5105128 0.0 1013311
09:00+22ююв5747100 0.0 1015481
12:00+27ю4433100 0.0 10131604
15:00+29ююз342999 0.0 10092293
18:00+29ююз4529100 0.0 10082011
21:00+25зюз123991 0.0 101022
11 августа, чт
чт1100:00+23з114979 0.0 101113
03:00+24юв4103846 0.0 1010510
06:00+20ююв365313 0.0 1012216
09:00+22юв5749100 0.0 1014576
12:00+28юв243567 0.0 10121677
15:00+30юз242918 0.0 10082222
18:00+29ююв1431100 0.0 10081515
21:00+24зсз235599 0.0 1010131
12 августа, пт
пт1200:00+23юв2452100 0.0 1011212
03:00+22вюв495633 0.0 1010447
06:00+20ююв495583 0.0 1012352
09:00+22юв6851100 0.0 1014599
12:00+27юв4536100 0.0 10121488
15:00+28юз2434100 0.0 10092038
18:00+28ююв2434100 0.0 10081875
21:00+23ссз3461100 0.0 1011240
13 августа, сб
сб1300:00+23ююв235897 0.0 101170
03:00+22вюв3949100 0.0 1011313
06:00+20ююв485059 0.0 1012296
09:00+22вюв464498 0.0 1014469
12:00+27всв233233 0.0 10121469
15:00+28сз553398 0.0 10091646
18:00+25ссз664779 0.0 1009417
21:00+23ссз23657 0.0 1011115
14 августа, вс
вс1400:00+23ссз115827 0.0 101011
03:00+21юв236411 0.0 101190
06:00+21с01658 0.0 101145
09:00+23юв115659 0.0 1013401
12:00+27с334697 0.0 10121649
15:00+27с6447100 0.0 10091219
18:00+25ссз5556100 0.0 1008547
21:00+23с3466100 0.0 1010173